Fairmont, MN

10:44 AM CDT on March 27, 2017 (GMT -0500)
Fairmont Municipal

Weather History for KFRM - February, 2013

Change the Weather History Date:

Monday, February 11, 2013

  Actual Average Record
Temperature  
Mean Temperature 28 °F -  
Max Temperature 33 °F 25 °F 59 °F (1977)
Min Temperature 24 °F 8 °F -24 °F (1988)
Degree Days  
Heating Degree Days 36    
Moisture  
Dew Point 17 °F    
Average Humidity 62    
Maximum Humidity 75    
Minimum Humidity 55    
Precipitation  
Precipitation 0.02 in - - ()
Sea Level Pressure  
Sea Level Pressure 29.87 in    
Wind  
Wind Speed 25 mph (WNW)    
Max Wind Speed 34 mph    
Max Gust Speed 41 mph    
Visibility 7 miles    
Events      
Averages and records for this station are not official NWS values.
T = Trace of Precipitation, MM = Missing Value Source: NWS Daily Summary

Daily Weather History Graph

Daily Weather History Graph

Search for Another Location

Airport or City:

Trip Planner

Search our weather history database for the weather conditions in past years. The results will help you decide how hot, cold, wet, or windy it might be!

Date:

Astronomy

Feb. 11, 2013 Rise Set
Actual Time 7:21 AM CST 5:42 PM CST
Civil Twilight 6:51 AM CST 6:12 PM CST
Nautical Twilight 6:18 AM CST 6:46 PM CST
Astronomical Twilight 5:44 AM CST 7:19 PM CST
Moon 7:41 AM CST (2/11) 7:46 PM CST (2/11)
Length of Visible Light 11h 20m
Length of Day
10h 21m
Waxing Crescent, 3% of the Moon is Illuminated
Feb 11
Waxing Crescent
Feb 17
First Quarter
Feb 25
Full
Mar 4
Last Quarter
Mar 11
New

Hourly Weather History & Observations

Time (CST) Temp. Windchill Dew Point Humidity Pressure Visibility Wind Dir Wind Speed Gust Speed Precip Events Conditions
12:15 AM 33.8 °F 21.6 °F 24.8 °F 70% 29.45 in 3.0 mi WNW 23.0 mph 29.9 mph N/A   Overcast
12:35 AM 32.0 °F 18.6 °F 23.0 °F 69% 29.46 in 5.0 mi WNW 25.3 mph 29.9 mph N/A   Overcast
12:55 AM 32.0 °F 18.4 °F 23.0 °F 69% 29.48 in 7.0 mi WNW 26.5 mph 32.2 mph N/A   Overcast
1:15 AM 32.0 °F 18.1 °F 23.0 °F 69% 29.49 in 5.0 mi WNW 27.6 mph 33.4 mph N/A   Overcast
1:35 AM 32.0 °F 18.4 °F 23.0 °F 69% 29.51 in 1.8 mi WNW 26.5 mph 33.4 mph N/A   Overcast
1:55 AM 32.0 °F 18.9 °F 23.0 °F 69% 29.52 in 2.0 mi WNW 24.2 mph 33.4 mph N/A   Overcast
2:15 AM 32.0 °F 17.9 °F 21.2 °F 64% 29.54 in 3.0 mi WNW 28.8 mph 33.4 mph N/A   Overcast
2:35 AM 30.2 °F 15.4 °F 23.0 °F 75% 29.55 in 1.8 mi WNW 28.8 mph 35.7 mph N/A   Overcast
2:55 AM 32.0 °F 18.1 °F 21.2 °F 64% 29.57 in 1.8 mi WNW 27.6 mph 35.7 mph N/A   Overcast
3:15 AM 30.2 °F 15.4 °F 21.2 °F 69% 29.59 in 1.8 mi WNW 28.8 mph 38.0 mph N/A   Overcast
3:35 AM 30.2 °F 15.4 °F 21.2 °F 69% 29.60 in 2.5 mi WNW 28.8 mph 38.0 mph N/A   Overcast
3:55 AM 30.2 °F 14.9 °F 21.2 °F 69% 29.61 in 2.0 mi NW 31.1 mph 38.0 mph N/A   Overcast
4:15 AM 32.0 °F 17.4 °F 21.2 °F 64% 29.63 in 2.5 mi WNW 31.1 mph 38.0 mph N/A   Overcast
4:35 AM 32.0 °F 18.4 °F 21.2 °F 64% 29.64 in 3.0 mi NW 26.5 mph 40.3 mph N/A   Overcast
4:55 AM 30.2 °F 15.2 °F 21.2 °F 69% 29.66 in 1.5 mi NW 29.9 mph 39.1 mph N/A   Overcast
5:15 AM - - - N/A% 29.67 in 2.0 mi NW 27.6 mph 41.4 mph N/A   Overcast
5:35 AM 30.2 °F 15.9 °F 19.4 °F 64% 29.70 in 4.0 mi WNW 26.5 mph 38.0 mph N/A   Overcast
5:55 AM 30.2 °F 15.2 °F 19.4 °F 64% 29.71 in 3.0 mi NW 29.9 mph 38.0 mph N/A   Overcast
6:15 AM 28.4 °F 12.0 °F 19.4 °F 69% 29.72 in 3.0 mi NW 33.4 mph 40.3 mph N/A   Overcast
6:35 AM 28.4 °F 12.7 °F 17.6 °F 64% 29.74 in 5.0 mi NW 29.9 mph 35.7 mph N/A   Overcast
6:55 AM 28.4 °F 12.7 °F 17.6 °F 64% 29.76 in 5.0 mi NW 29.9 mph 39.1 mph N/A   Overcast
7:15 AM 26.6 °F 10.6 °F 17.6 °F 69% 29.77 in 8.0 mi WNW 28.8 mph 36.8 mph N/A   Overcast
7:35 AM 26.6 °F 10.8 °F 17.6 °F 69% 29.78 in 7.0 mi WNW 27.6 mph 35.7 mph N/A   Overcast
7:55 AM 26.6 °F 10.8 °F 17.6 °F 69% 29.80 in 7.0 mi NW 27.6 mph 33.4 mph N/A   Overcast
8:15 AM 28.4 °F 13.3 °F 17.6 °F 64% 29.81 in 5.0 mi WNW 27.6 mph 39.1 mph N/A   Overcast
8:35 AM 26.6 °F 10.6 °F 17.6 °F 69% 29.83 in 5.0 mi WNW 28.8 mph 36.8 mph N/A   Overcast
8:55 AM 26.6 °F 10.6 °F 17.6 °F 69% 29.85 in 1.8 mi WNW 28.8 mph 34.5 mph N/A   Overcast
9:15 AM 28.4 °F 13.3 °F 17.6 °F 64% 29.87 in 3.0 mi WNW 27.6 mph 35.7 mph N/A   Overcast
9:35 AM 28.4 °F 13.5 °F 17.6 °F 64% 29.87 in 8.0 mi WNW 26.5 mph 33.4 mph N/A   Overcast
9:55 AM 28.4 °F 13.0 °F 17.6 °F 64% 29.88 in 8.0 mi WNW 28.8 mph 36.8 mph N/A   Overcast
10:15 AM 30.2 °F 15.2 °F 17.6 °F 60% 29.89 in 10.0 mi WNW 29.9 mph 36.8 mph N/A   Overcast
10:35 AM 28.4 °F 12.7 °F 17.6 °F 64% 29.90 in 4.0 mi WNW 29.9 mph 39.1 mph N/A   Overcast
10:55 AM - - - N/A% 29.91 in 5.0 mi WNW 33.4 mph 40.3 mph N/A   Overcast
11:35 AM 28.4 °F 13.0 °F 17.6 °F 64% 29.94 in 2.5 mi NW 28.8 mph 38.0 mph N/A   Overcast
11:55 AM 30.2 °F 14.3 °F 15.8 °F 55% 29.94 in 5.0 mi WNW 34.5 mph 39.1 mph N/A   Overcast
12:15 PM 30.2 °F 15.4 °F 15.8 °F 55% 29.94 in 10.0 mi WNW 28.8 mph 38.0 mph N/A   Overcast
12:35 PM 30.2 °F 15.4 °F 15.8 °F 55% 29.94 in 7.0 mi NW 28.8 mph 33.4 mph N/A   Overcast
12:55 PM 28.4 °F 13.0 °F 15.8 °F 59% 29.95 in 10.0 mi NW 28.8 mph 34.5 mph N/A   Overcast
1:15 PM 28.4 °F 14.1 °F 15.8 °F 59% 29.96 in 10.0 mi NW 24.2 mph 32.2 mph N/A   Overcast
1:35 PM 28.4 °F 15.1 °F 15.8 °F 59% 29.97 in 10.0 mi WNW 20.7 mph 32.2 mph N/A   Overcast
1:55 PM 28.4 °F 14.1 °F 15.8 °F 59% 29.98 in 5.0 mi NW 24.2 mph 32.2 mph N/A   Overcast
2:15 PM 28.4 °F 14.7 °F 15.8 °F 59% 29.99 in 5.0 mi NW 21.9 mph 32.2 mph N/A   Overcast
2:35 PM 28.4 °F 14.7 °F 14.0 °F 55% 29.99 in 10.0 mi WNW 21.9 mph 29.9 mph N/A   Overcast
2:55 PM 28.4 °F 14.4 °F 15.8 °F 59% 29.99 in 10.0 mi WNW 23.0 mph 31.1 mph N/A   Overcast
3:15 PM 28.4 °F 14.7 °F 15.8 °F 59% 30.00 in 8.0 mi WNW 21.9 mph 28.8 mph N/A   Overcast
3:35 PM 28.4 °F 14.7 °F 14.0 °F 55% 30.01 in 10.0 mi WNW 21.9 mph 27.6 mph N/A   Overcast
3:55 PM 26.6 °F 11.7 °F 14.0 °F 59% 30.01 in 10.0 mi WNW 24.2 mph 28.8 mph N/A   Overcast
4:55 PM 26.6 °F 12.0 °F 14.0 °F 59% 30.03 in 10.0 mi WNW 23.0 mph - N/A   Overcast
5:15 PM 26.6 °F 13.8 °F 14.0 °F 59% 30.03 in 10.0 mi WNW 17.3 mph 21.9 mph N/A   Overcast
5:35 PM 26.6 °F 13.1 °F 15.8 °F 64% 30.03 in 8.0 mi WNW 19.6 mph 28.8 mph N/A   Overcast
5:55 PM 26.6 °F 13.1 °F 14.0 °F 59% 30.03 in 10.0 mi WNW 19.6 mph 27.6 mph N/A   Overcast
6:15 PM 26.6 °F 14.7 °F 12.2 °F 55% 30.04 in 10.0 mi WNW 15.0 mph 26.5 mph N/A   Overcast
6:35 PM 24.8 °F 11.5 °F 12.2 °F 59% 30.05 in 10.0 mi WNW 17.3 mph 25.3 mph N/A   Overcast
6:55 PM 24.8 °F 12.4 °F 12.2 °F 59% 30.06 in 10.0 mi WNW 15.0 mph 21.9 mph N/A   Overcast
7:15 PM 24.8 °F 12.9 °F 12.2 °F 59% 30.06 in 10.0 mi WNW 13.8 mph - N/A   Overcast
7:35 PM 24.8 °F 13.4 °F 12.2 °F 59% 30.06 in 10.0 mi WNW 12.7 mph - N/A   Overcast
7:55 PM 24.8 °F 11.5 °F 12.2 °F 59% 30.06 in 10.0 mi WNW 17.3 mph - N/A   Overcast
8:15 PM 24.8 °F 12.4 °F 12.2 °F 59% 30.06 in 10.0 mi NW 15.0 mph - N/A   Overcast
8:35 PM 24.8 °F 12.4 °F 12.2 °F 59% 30.06 in 10.0 mi NW 15.0 mph 20.7 mph N/A   Overcast
8:55 PM 24.8 °F 12.9 °F 12.2 °F 59% 30.06 in 10.0 mi NW 13.8 mph - N/A   Overcast
9:15 PM 24.8 °F 12.9 °F 12.2 °F 59% 30.07 in 10.0 mi WNW 13.8 mph - N/A   Overcast
9:35 PM 24.8 °F 12.4 °F 12.2 °F 59% 30.07 in 10.0 mi WNW 15.0 mph - N/A   Overcast
9:55 PM 24.8 °F 13.4 °F 12.2 °F 59% 30.07 in 10.0 mi NW 12.7 mph - N/A   Overcast
10:15 PM 24.8 °F 13.4 °F 12.2 °F 59% 30.08 in 10.0 mi WNW 12.7 mph - N/A   Overcast
10:35 PM 24.8 °F 14.0 °F 12.2 °F 59% 30.08 in 10.0 mi WNW 11.5 mph - N/A   Overcast
10:55 PM 24.8 °F 15.3 °F 12.2 °F 59% 30.08 in 10.0 mi WNW 9.2 mph - N/A   Overcast
11:15 PM 24.8 °F 13.4 °F 12.2 °F 59% 30.08 in 10.0 mi WNW 12.7 mph - N/A   Overcast
11:35 PM 24.8 °F 15.3 °F 12.2 °F 59% 30.08 in 10.0 mi WNW 9.2 mph - N/A   Overcast
11:55 PM 24.8 °F 16.1 °F 12.2 °F 59% 30.08 in 10.0 mi NW 8.1 mph - N/A   Overcast